Regional Weather Roundup
Issued by NWS

Home | Current Version | Previous Version | Graphics & Text | Print | Product List | Glossary On
Versions: 1 2 3 4 5 6 7 8 9 10 11 12 13 14 15 16 17 18 19 20 21 22 23 24 25 26 27 28 29 30 31 32 33 34 35 36 37 38 39 40 41 42 43 44 45 46 47 48 49 50
000
ASUS43 KLOT 230003
RWRIL

ILLINOIS REGIONAL WEATHER ROUNDUP
NATIONAL WEATHER SERVICE CHICAGO/ROMEOVILLE IL
600 PM CST THU FEB 22 2018

NOTE: "FAIR" INDICATES FEW OR NO CLOUDS BELOW 12,000 FEET WITH NO
SIGNIFICANT WEATHER AND/OR OBSTRUCTIONS TO VISIBILITY.

* THESE STATIONS ARE NOT UNDER NWS QUALITY CONTROL. THEY ALSO MAY NOT
  REPORT WEATHER SUCH AS PRECIPITATION OR FOG.

ILZ001-002-007-009-015-016-024-230100-
NORTHWEST ILLINOIS

CITY           SKY/WX    TMP DP  RH WIND       PRES   REMARKS
MOLINE         FOG       38  37  97 E10       30.30F VSB 3/4 WCI  31
6HR MIN TEMP:  37; 6HR MAX TEMP:  39;

STERLING*      CLOUDY    36  33  89 E15       30.36  WCI  27
SAVANNA*       CLOUDY    36  32  86 E9        30.35F WCI  29
$$

ILZ003-004-008-010-011-017-018-230100-
NORTH CENTRAL ILLINOIS

CITY           SKY/WX    TMP DP  RH WIND       PRES   REMARKS
ROCKFORD       CLOUDY    35  28  75 E9        30.41F WCI  28
6HR MIN TEMP:  35; 6HR MAX TEMP:  40;

FREEPORT*      CLOUDY    33  31  90 E12       30.40F WCI  25
ROCHELLE*      CLOUDY    35  31  86 E9        30.38F WCI  28
DE KALB*       CLOUDY    35  31  83 E9        30.39F WCI  28
PERU*          CLOUDY    38  36  92 E13       30.37F FOG     WCI  30
$$

ILZ005-006-012>014-019>023-230100-
NORTHEAST ILLINOIS

CITY           SKY/WX    TMP DP  RH WIND       PRES   REMARKS
CHICAGO-OHARE  CLOUDY    38  28  67 NE8       30.42R WCI  32
6HR MIN TEMP:  38; 6HR MAX TEMP:  40;

CHICAGO-MIDWAY CLOUDY    40  32  73 NE10      30.41S
6HR MIN TEMP:  38; 6HR MAX TEMP:  40;

AURORA         CLOUDY    39  31  72 E13       30.39F WCI  31
6HR MIN TEMP:  39; 6HR MAX TEMP:  44;

LANSING*       CLOUDY    42  37  83 E6        30.41R
JOLIET*        CLOUDY    41  35  77 NE8       30.40F
WAUKEGAN       CLOUDY    36  31  82 NE12      30.43S WCI  28
6HR MIN TEMP:  35; 6HR MAX TEMP:  36;

DUPAGE AIRPORT CLOUDY    38  30  73 NE12      30.40S WCI  30
6HR MIN TEMP:  37; 6HR MAX TEMP:  42;

KANKAKEE*      CLOUDY    43  38  82 E9        30.39R
WHEELING       CLOUDY    38  30  73 NE7       30.44S WCI  33
6HR MIN TEMP:  37; 6HR MAX TEMP:  40;

MORRIS*        CLOUDY    40  35  81 E8        30.38F
ROMEOVILLE*    CLOUDY    39  33  78 E8        30.39F WCI  33
NORTHERLY ISL    N/A     36  31  82 MISG        N/A
$$

LMZ740>746-230100-
SOUTHERN LAKE MICHIGAN

STATION/POSITION SKY/WX   TEMP    WIND        PRES    VSBY  WAVE
                          AIR SEA DIR/SP/G                  HT/PER
                          (F)     (DEG/KT/KT) (MB)    (MI)  (FT/S)
HARRISON CRIB              36      40/ 11/ 12   N/A
BURNHAM HARBOR             36      10/  7/ 10   N/A
CALUMET HARBOR             36      10/  7/ 10 1029.5R
BURNS HARBOR               42      90/  8/ 10 1030.5R
MICHIGAN CITY              42      70/  9/ 12   N/A
$$

ILZ025>027-034>036-040-047-049-050-058-095>099-230100-
WEST-CENTRAL ILLINOIS

CITY           SKY/WX    TMP DP  RH WIND       PRES   REMARKS
QUINCY         FOG       36  35  96 E8        30.26F VSB 1   WCI  30
GALESBURG*     CLOUDY    38  38 100 E7        30.30F FOG     WCI  33
MACOMB*        FOG       36  36 100 E8        30.32F VSB 1/4 WCI  30
JACKSONVILLE*  CLOUDY    41  40  98 E7        30.30F FOG
PITTSFIELD*    FOG       37  37  99 E3        30.31F VSB 3/4
$$

ILZ028>032-037-038-041>044-048-051>054-059>061-230100-
CENTRAL ILLINOIS

CITY           SKY/WX    TMP DP  RH WIND       PRES   REMARKS
BLOOMINGTON    LGT RAIN  42  41  96 SE9       30.36F VSB 1
DECATUR        CLOUDY    43  42  97 E7        30.33F FOG
PEORIA         FOG       42  41  96 E7        30.33F VSB 1/2
6HR MIN TEMP:  39; 6HR MAX TEMP:  43;

LINCOLN*       CLOUDY    43  43 100 E6        30.34F FOG
SPRINGFIELD    CLOUDY    44  42  93 E7        30.31F FOG
6HR MIN TEMP:  44; 6HR MAX TEMP:  45;

TAYLORVILLE    CLOUDY    43  43 100 E5        30.31F FOG
6HR MIN TEMP:  41; 6HR MAX TEMP:  44;

$$

ILZ033-039-045-046-055>057-062-063-230100-
EAST-CENTRAL ILLINOIS

CITY           SKY/WX    TMP DP  RH WIND       PRES   REMARKS
CHAMPAIGN      CLOUDY    42  42 100 SE3       30.38R FOG
DANVILLE*      CLOUDY    43  41  92 SE7       30.36R
RANTOUL*       DRIZZLE   44  44  99 S6        30.39R
MATTOON        CLOUDY    43  42  97 SE5       30.35R FOG
PARIS*         CLOUDY    43  42  97 CALM      30.39R
$$

ILZ079-100>102-230100-
SOUTHWEST ILLINOIS

CITY           SKY/WX    TMP DP  RH WIND       PRES   REMARKS
ALTON          CLOUDY    43  43 100 CALM      30.31F FOG
BELLEVILLE     CLOUDY    44  42  93 CALM      30.29F
CAHOKIA*       CLOUDY    43  42  97 CALM      30.34R
SPARTA*        CLOUDY    45  45 100 E5        30.31F
$$

ILZ064>066-069>071-074>076-080>082-084>086-088>090-092>094-230100-
SOUTH-CENTRAL ILLINOIS

CITY           SKY/WX    TMP DP  RH WIND       PRES   REMARKS
CARBONDALE     CLOUDY    46  45  93 CALM      30.31F
CAIRO*         CLOUDY    48  46  93 CALM      30.31S
EFFINGHAM*     CLOUDY    46  46 100 CALM      30.36F FOG
MARION         CLOUDY    46  46 100 CALM      30.33F
MT. VERNON     CLOUDY    47  45  93 E3        30.32F
CENTRALIA*     CLOUDY    47  46  97 SE3       30.31F
SALEM*         CLOUDY    47  45  91 CALM      30.33F
METROPOLIS*    CLOUDY    49  47  91 CALM      30.32F
$$

ILZ067-068-072-073-078-083-087-091-230100-
SOUTHEAST ILLINOIS

CITY           SKY/WX    TMP DP  RH WIND       PRES   REMARKS
LAWRENCEVILLE  CLOUDY    47  46  97 CALM      30.38R FOG
FLORA*         CLOUDY    48  47  97 CALM      30.36S FOG
FAIRFIELD*     CLOUDY    47  47 100 CALM      30.33F FOG
HARRISBURG*    CLOUDY    48  47  96 CALM      30.33F
ROBINSON*      CLOUDY    45  45 100 CALM      30.38R FOG
CARMI*         CLOUDY    48  47  97 CALM      30.33F FOG
$$

ABBREVIATIONS USED IN REMARKS
   TC - TEMPERATURE IN CELSIUS
  WCI - WIND CHILL INDEX
   HX - HEAT INDEX
  VSB - VISIBILITY
$$





USA.gov is the U.S. government's official web portal to all federal, state and local government web resources and services.